STARLINK-38192, 100158

Orbit data source: Space-Track

STARLINK-38192, 100158 is a payload satellite owned by SpaceX/Seattle (US) in SSO that was launched on Sat, 25 Jul 2026 UTC launched from the Air Force Western Test Range (AFWTR). Payload-class satellites include a variety of spacecraft equipped with specific instruments for various scientific and technological missions. These include communications satellites like Starlink; space stations such as the ISS; scientific satellites like the Hubble; Earth observation satellites from companies like Planet Labs, Umbra, and HawkEye 360; GPS; miniature CubeSats for education and research; and military/defense satellites.

Loading next visibility...
Identifier
100158, 2026-171L
Orbit
SSO
Country
Flag of USUS
Related business
Manufacturer
SpaceX/Seattle
Mission
Operational spacecraft
Bus & Motor
STARLINK V2MO, Unknown motor
Mass
575 kg wet, ~530 kg dry
Launch date (UTC)
2026-07-25 (3 weeks ago)
Launch vehicle
Unknown
Launch site
Air Force Western Test Range (AFWTR)
Object type
Payload
Rocket body
Debris
Shape & HBR
BOX + PAN, 17.7 m
Radar Cross Section
RCS unknown

Expand to show TLE details & history
Last TLE update: 9 hours ago

TLE from 9 hours ago
0 STARLINK-38192
1 A0158U 26171L   26227.59871815  .00170580  00000-0  11226-2 0  9999
2 A0158  97.2828 259.4825 0000936 150.8972 209.2345 15.75174060  3326
Epoch: 2026-08-15T14:22Z
TLE epoch observation values (Epoch: 2026-08-15T14:22:09.248Z)
Latitude
-0.00006°
Longitude
79.93668°
Altitude
347.853 km
Speed
7.7 km/s
True Right ascension
17h 17m 55s
True Declination
0° 00' 00"
Sunlit
Object was in full shadow at epoch
Visualization orbit readout
Latitude
Unknown
Longitude
Unknown
Altitude
Unknown
Speed
Unknown
Apparent Right ascension
Unknown
Apparent Declination
Unknown
Sunlit
N/A
Visualization observer readout
Local Sidereal Time
13:35:38
Azimuth
Unknown
Elevation
Unknown
Doppler factor
Unknown
Orbital elements
Apogee altitude
341.652 km
Perigee altitude
340.394 km
Semi-major axis
6,719.16 km
Eccentricity
0.00009
Inclination
97.2828°
RAAN
259.4825°
Arg. of periapsis
150.8972°
True anomaly
209.22926°
Mean anomaly
209.2345°
Eccentric anomaly
209.23188°
Mean motion
3.94068 °/min
Orbital period
91.35 mins
BSTAR
0.0011226
Loading maneuver chart data...
Computing Atmospheric mass density...
Loading historical data...
Loading historical data...
Loading historical data...
Loading historical data...
Loading historical data...
Loading historical data...
Loading historical data...

Documentation

Showing up to 5 results
|